User: anonymous   Login
Location: Newark
(41.5333°N, 14.5500°E)
Time: 11:17:21
(UTC+00:00)
Language:

Envisat - Orbit

View from above orbital plane
View from above orbital plane
View from above satellite
View from above satellite

Ground track
Ground track

The orbit data is extracted from the following two-line orbital elements,

1 27386U 02009A   20056.97259163  .00000008  00000-0  15976-4 0  9992
2 27386  98.1398  69.9181 0001232  95.3776 296.4516 14.37972483942450
Epoch (UTC): 25 February 2020 23:20:31
Eccentricity: 0.0001232
inclination: 98.1398°
perigee height: 764 km
apogee height: 766 km
right ascension of ascending node: 69.9181°
argument of perigee: 95.3776°
revolutions per day: 14.37972483
mean anomaly at epoch: 296.4516°
orbit number at epoch: 94245

The dashed part of the orbit path shows where the satellite is in the earth's shadow,  

DLR